This is the latest recevied weather packets stored in our database for station/object K2CCS. If no packets are shown the sender has not sent any weather packets the latest 10 day(s).
| Time | Temp. | Humidity | Pressure | Rain* | Wind** | Luminosity | Snow |
|---|---|---|---|---|---|---|---|
| 1777422803 | 17.78° C | 45% | 1019.7 hPa | 0 mm | - | 0 W/m² | - |
| 1777422499 | 17.78° C | 45% | 1019.6 hPa | 0 mm | - | 0 W/m² | - |
| 1777422194 | 17.78° C | 44% | 1020 hPa | 0 mm | - | 0 W/m² | - |
| 1777421894 | 17.78° C | 44% | 1019.7 hPa | 0 mm | - | 0 W/m² | - |
| 1777421589 | 17.78° C | 44% | 1019.8 hPa | 0 mm | - | 0 W/m² | - |
| 1777421285 | 18.33° C | 44% | 1020 hPa | 0 mm | - | 0 W/m² | - |
| 1777420981 | 18.33° C | 43% | 1020 hPa | 0 mm | - | 0 W/m² | - |
| 1777420678 | 18.33° C | 44% | 1019.9 hPa | 0 mm | - | 0 W/m² | - |
| 1777420374 | 18.33° C | 43% | 1019.7 hPa | 0 mm | - | 2 W/m² | - |
| 1777420070 | 18.33° C | 44% | 1019.6 hPa | 0 mm | - | 6 W/m² | - |
| 1777419767 | 18.33° C | 43% | 1019.8 hPa | 0 mm | - | 11 W/m² | - |
| 1777419464 | 18.89° C | 43% | 1019.7 hPa | 0 mm | - | 16 W/m² | - |
| 1777419163 | 18.89° C | 43% | 1019.8 hPa | 0 mm | - | 23 W/m² | - |
| 1777418858 | 18.89° C | 43% | 1019.6 hPa | 0 mm | - | 29 W/m² | - |
| 1777418555 | 18.89° C | 42% | 1019.7 hPa | 0 mm | - | 39 W/m² | - |
| 1777418252 | 18.89° C | 42% | 1019.7 hPa | 0 mm | - | 45 W/m² | - |
| 1777417947 | 18.89° C | 42% | 1019.7 hPa | 0 mm | - | 60 W/m² | - |
| 1777417643 | 18.89° C | 42% | 1019.7 hPa | 0 mm | - | 55 W/m² | - |
| 1777417338 | 18.89° C | 42% | 1019.9 hPa | 0 mm | - | 48 W/m² | - |
| 1777417036 | 18.89° C | 43% | 1019.7 hPa | 0 mm | - | 36 W/m² | - |
| 1777416731 | 18.89° C | 41% | 1020 hPa | 0 mm | - | 32 W/m² | - |
| 1777416426 | 18.89° C | 42% | 1019.9 hPa | 0 mm | - | 35 W/m² | - |
| 1777416121 | 18.89° C | 42% | 1020.1 hPa | 0 mm | - | 37 W/m² | - |
| 1777415816 | 18.89° C | 41% | 1019.9 hPa | 0 mm | - | 35 W/m² | - |
| 1777415513 | 18.89° C | 42% | 1020.1 hPa | 0 mm | - | 27 W/m² | - |
* Rain latest hour (hover to see other rain measurements)
** Current wind speed in m/s (hover to see current wind gust speed)